#datetime,building,power
2023-08-28T00:00:00,axn,28.57
2023-08-28T00:01:00,axn,28.70
2023-08-28T00:02:00,axn,28.94
2023-08-28T00:03:00,axn,29.54
2023-08-28T00:04:00,axn,28.93
2023-08-28T00:05:00,axn,28.95
2023-08-28T00:06:00,axn,28.99
2023-08-28T00:07:00,axn,28.37
2023-08-28T00:08:00,axn,28.48
2023-08-28T00:09:00,axn,28.27
2023-08-28T00:10:00,axn,28.01
2023-08-28T00:11:00,axn,28.08
2023-08-28T00:12:00,axn,28.57
2023-08-28T00:13:00,axn,28.32
2023-08-28T00:14:00,axn,28.00
2023-08-28T00:15:00,axn,33.42
2023-08-28T00:16:00,axn,27.95
2023-08-28T00:17:00,axn,28.15
2023-08-28T00:18:00,axn,27.94
2023-08-28T00:19:00,axn,28.16
2023-08-28T00:20:00,axn,27.99
2023-08-28T00:21:00,axn,28.33
2023-08-28T00:22:00,axn,28.05
2023-08-28T00:23:00,axn,27.87
2023-08-28T00:24:00,axn,27.92
2023-08-28T00:25:00,axn,27.97
2023-08-28T00:26:00,axn,28.19
2023-08-28T00:27:00,axn,28.24
2023-08-28T00:28:00,axn,28.19
2023-08-28T00:29:00,axn,28.22
2023-08-28T00:30:00,axn,28.28
2023-08-28T00:31:00,axn,28.15
2023-08-28T00:32:00,axn,28.12
2023-08-28T00:33:00,axn,30.93
2023-08-28T00:34:00,axn,31.09
2023-08-28T00:35:00,axn,30.94
2023-08-28T00:36:00,axn,27.96
2023-08-28T00:37:00,axn,27.85
2023-08-28T00:38:00,axn,27.70
2023-08-28T00:39:00,axn,27.68
2023-08-28T00:40:00,axn,27.74
2023-08-28T00:41:00,axn,27.87
2023-08-28T00:42:00,axn,28.01
2023-08-28T00:43:00,axn,27.89
2023-08-28T00:44:00,axn,27.97
2023-08-28T00:45:00,axn,27.94
2023-08-28T00:46:00,axn,27.91
2023-08-28T00:47:00,axn,28.11
2023-08-28T00:48:00,axn,27.95
2023-08-28T00:49:00,axn,27.93
2023-08-28T00:50:00,axn,27.91
2023-08-28T00:51:00,axn,27.87
2023-08-28T00:52:00,axn,28.41
2023-08-28T00:53:00,axn,28.53
2023-08-28T00:54:00,axn,28.43
2023-08-28T00:55:00,axn,28.53
2023-08-28T00:56:00,axn,28.47
2023-08-28T00:57:00,axn,28.33
2023-08-28T00:58:00,axn,28.26
2023-08-28T00:59:00,axn,28.29
2023-08-28T01:00:00,axn,28.20
2023-08-28T01:01:00,axn,27.94
2023-08-28T01:02:00,axn,29.02
2023-08-28T01:03:00,axn,28.76
2023-08-28T01:04:00,axn,28.63
2023-08-28T01:05:00,axn,28.69
2023-08-28T01:06:00,axn,28.58
2023-08-28T01:07:00,axn,28.75
2023-08-28T01:08:00,axn,28.67
2023-08-28T01:09:00,axn,28.65
2023-08-28T01:10:00,axn,28.72
2023-08-28T01:11:00,axn,28.66
2023-08-28T01:12:00,axn,28.89
2023-08-28T01:13:00,axn,29.07
2023-08-28T01:14:00,axn,28.07
2023-08-28T01:15:00,axn,28.05
2023-08-28T01:16:00,axn,28.00
2023-08-28T01:17:00,axn,28.12
2023-08-28T01:18:00,axn,28.56
2023-08-28T01:19:00,axn,28.18
2023-08-28T01:20:00,axn,28.09
2023-08-28T01:21:00,axn,28.02
2023-08-28T01:22:00,axn,28.29
2023-08-28T01:23:00,axn,27.98
2023-08-28T01:24:00,axn,27.95
2023-08-28T01:25:00,axn,28.19
2023-08-28T01:26:00,axn,28.26
2023-08-28T01:27:00,axn,27.82
2023-08-28T01:28:00,axn,27.67
2023-08-28T01:29:00,axn,27.76
2023-08-28T01:30:00,axn,27.86
2023-08-28T01:31:00,axn,30.58
2023-08-28T01:32:00,axn,27.68
2023-08-28T01:33:00,axn,27.92
2023-08-28T01:34:00,axn,27.70
2023-08-28T01:35:00,axn,27.47
2023-08-28T01:36:00,axn,27.41
2023-08-28T01:37:00,axn,27.54
2023-08-28T01:38:00,axn,27.41
2023-08-28T01:39:00,axn,27.42
2023-08-28T01:40:00,axn,27.42
2023-08-28T01:41:00,axn,27.39
2023-08-28T01:42:00,axn,27.42
2023-08-28T01:43:00,axn,27.69
2023-08-28T01:44:00,axn,27.57
2023-08-28T01:45:00,axn,27.82
2023-08-28T01:46:00,axn,27.78
2023-08-28T01:47:00,axn,27.90
2023-08-28T01:48:00,axn,27.70
2023-08-28T01:49:00,axn,27.39
2023-08-28T01:50:00,axn,27.39
2023-08-28T01:51:00,axn,27.37
2023-08-28T01:52:00,axn,27.31
2023-08-28T01:53:00,axn,27.09
2023-08-28T01:54:00,axn,27.66
2023-08-28T01:55:00,axn,27.63
2023-08-28T01:56:00,axn,27.69
2023-08-28T01:57:00,axn,27.68
2023-08-28T01:58:00,axn,27.73
2023-08-28T01:59:00,axn,27.77
2023-08-28T02:00:00,axn,27.95
2023-08-28T02:01:00,axn,27.79
2023-08-28T02:02:00,axn,27.73
2023-08-28T02:03:00,axn,27.77
2023-08-28T02:04:00,axn,27.88
2023-08-28T02:05:00,axn,27.85
2023-08-28T02:06:00,axn,27.82
2023-08-28T02:07:00,axn,27.85
2023-08-28T02:08:00,axn,28.19
2023-08-28T02:09:00,axn,27.84
2023-08-28T02:10:00,axn,27.80
2023-08-28T02:11:00,axn,27.62
2023-08-28T02:12:00,axn,27.65
2023-08-28T02:13:00,axn,27.68
2023-08-28T02:14:00,axn,27.90
2023-08-28T02:15:00,axn,27.84
2023-08-28T02:16:00,axn,27.81
2023-08-28T02:17:00,axn,27.87
2023-08-28T02:18:00,axn,28.55
2023-08-28T02:19:00,axn,28.18
2023-08-28T02:20:00,axn,27.83
2023-08-28T02:21:00,axn,28.03
2023-08-28T02:22:00,axn,27.87
2023-08-28T02:23:00,axn,27.92
2023-08-28T02:24:00,axn,28.01
2023-08-28T02:25:00,axn,27.89
2023-08-28T02:26:00,axn,27.87
2023-08-28T02:27:00,axn,27.99
2023-08-28T02:28:00,axn,28.04
2023-08-28T02:29:00,axn,27.98
2023-08-28T02:30:00,axn,27.91
2023-08-28T02:31:00,axn,27.90
2023-08-28T02:32:00,axn,27.82
2023-08-28T02:33:00,axn,27.89
2023-08-28T02:34:00,axn,27.88
2023-08-28T02:35:00,axn,27.85
2023-08-28T02:36:00,axn,28.07
2023-08-28T02:37:00,axn,27.91
2023-08-28T02:38:00,axn,28.04
2023-08-28T02:39:00,axn,28.03
2023-08-28T02:40:00,axn,27.82
2023-08-28T02:41:00,axn,27.82
2023-08-28T02:42:00,axn,28.24
2023-08-28T02:43:00,axn,28.00
2023-08-28T02:44:00,axn,28.42
2023-08-28T02:45:00,axn,28.16
2023-08-28T02:46:00,axn,28.04
2023-08-28T02:47:00,axn,28.07
2023-08-28T02:48:00,axn,28.17
2023-08-28T02:49:00,axn,28.05
2023-08-28T02:50:00,axn,28.31
2023-08-28T02:51:00,axn,27.93
2023-08-28T02:52:00,axn,28.01
2023-08-28T02:53:00,axn,28.40
2023-08-28T02:54:00,axn,27.96
2023-08-28T02:55:00,axn,28.69
2023-08-28T02:56:00,axn,28.85
2023-08-28T02:57:00,axn,29.07
2023-08-28T02:58:00,axn,28.64
2023-08-28T02:59:00,axn,28.75
2023-08-28T03:00:00,axn,28.61
2023-08-28T03:01:00,axn,28.56
2023-08-28T03:02:00,axn,28.52
2023-08-28T03:03:00,axn,28.63
2023-08-28T03:04:00,axn,28.56
2023-08-28T03:05:00,axn,28.51
2023-08-28T03:06:00,axn,28.58
2023-08-28T03:07:00,axn,28.51
2023-08-28T03:08:00,axn,28.53
2023-08-28T03:09:00,axn,28.49
2023-08-28T03:10:00,axn,28.88
2023-08-28T03:11:00,axn,28.43
2023-08-28T03:12:00,axn,28.35
2023-08-28T03:13:00,axn,28.77
2023-08-28T03:14:00,axn,28.50
2023-08-28T03:15:00,axn,28.51
2023-08-28T03:16:00,axn,28.51
2023-08-28T03:17:00,axn,28.61
2023-08-28T03:18:00,axn,28.61
2023-08-28T03:19:00,axn,28.56
2023-08-28T03:20:00,axn,28.73
2023-08-28T03:21:00,axn,28.74
2023-08-28T03:22:00,axn,28.94
2023-08-28T03:23:00,axn,29.32
2023-08-28T03:24:00,axn,28.89
2023-08-28T03:25:00,axn,29.01
2023-08-28T03:26:00,axn,28.98
2023-08-28T03:27:00,axn,28.95
2023-08-28T03:28:00,axn,29.56
2023-08-28T03:29:00,axn,29.07
2023-08-28T03:30:00,axn,29.21
2023-08-28T03:31:00,axn,29.04
2023-08-28T03:32:00,axn,29.10
2023-08-28T03:33:00,axn,29.13
2023-08-28T03:34:00,axn,29.46
2023-08-28T03:35:00,axn,29.13
2023-08-28T03:36:00,axn,29.23
2023-08-28T03:37:00,axn,29.23
2023-08-28T03:38:00,axn,29.38
2023-08-28T03:39:00,axn,29.51
2023-08-28T03:40:00,axn,29.22
2023-08-28T03:41:00,axn,29.61
2023-08-28T03:42:00,axn,29.26
2023-08-28T03:43:00,axn,29.32
2023-08-28T03:44:00,axn,33.94
2023-08-28T03:45:00,axn,33.89
2023-08-28T03:46:00,axn,33.99
2023-08-28T03:47:00,axn,29.35
2023-08-28T03:48:00,axn,29.14
2023-08-28T03:49:00,axn,29.06
2023-08-28T03:50:00,axn,28.94
2023-08-28T03:51:00,axn,28.88
2023-08-28T03:52:00,axn,28.98
2023-08-28T03:53:00,axn,29.09
2023-08-28T03:54:00,axn,29.84
2023-08-28T03:55:00,axn,29.21
2023-08-28T03:56:00,axn,29.21
2023-08-28T03:57:00,axn,29.09
2023-08-28T03:58:00,axn,29.06
2023-08-28T03:59:00,axn,29.18
2023-08-28T04:00:00,axn,29.35
2023-08-28T04:01:00,axn,28.89
2023-08-28T04:02:00,axn,28.89
2023-08-28T04:03:00,axn,28.83
2023-08-28T04:04:00,axn,28.96
2023-08-28T04:05:00,axn,28.87
2023-08-28T04:06:00,axn,28.94
2023-08-28T04:07:00,axn,28.83
2023-08-28T04:08:00,axn,28.54
2023-08-28T04:09:00,axn,28.48
2023-08-28T04:10:00,axn,31.49
2023-08-28T04:11:00,axn,31.39
2023-08-28T04:12:00,axn,31.41
2023-08-28T04:13:00,axn,28.29
2023-08-28T04:14:00,axn,28.66
2023-08-28T04:15:00,axn,29.34
2023-08-28T04:16:00,axn,28.85
2023-08-28T04:17:00,axn,31.33
2023-08-28T04:18:00,axn,30.98
2023-08-28T04:19:00,axn,31.03
2023-08-28T04:20:00,axn,30.92
2023-08-28T04:21:00,axn,31.53
2023-08-28T04:22:00,axn,32.09
2023-08-28T04:23:00,axn,31.57
2023-08-28T04:24:00,axn,31.53
2023-08-28T04:25:00,axn,31.94
2023-08-28T04:26:00,axn,47.02
2023-08-28T04:27:00,axn,32.51
2023-08-28T04:28:00,axn,36.16
2023-08-28T04:29:00,axn,33.60
2023-08-28T04:30:00,axn,33.61
2023-08-28T04:31:00,axn,33.50
2023-08-28T04:32:00,axn,33.43
2023-08-28T04:33:00,axn,33.66
2023-08-28T04:34:00,axn,33.27
2023-08-28T04:35:00,axn,33.64
2023-08-28T04:36:00,axn,33.34
2023-08-28T04:37:00,axn,33.20
2023-08-28T04:38:00,axn,33.22
2023-08-28T04:39:00,axn,33.22
2023-08-28T04:40:00,axn,33.33
2023-08-28T04:41:00,axn,33.19
2023-08-28T04:42:00,axn,33.12
2023-08-28T04:43:00,axn,33.09
2023-08-28T04:44:00,axn,33.17
2023-08-28T04:45:00,axn,33.17
2023-08-28T04:46:00,axn,33.03
2023-08-28T04:47:00,axn,32.96
2023-08-28T04:48:00,axn,33.24
2023-08-28T04:49:00,axn,33.67
2023-08-28T04:50:00,axn,33.42
2023-08-28T04:51:00,axn,33.26
2023-08-28T04:52:00,axn,33.12
2023-08-28T04:53:00,axn,33.08
2023-08-28T04:54:00,axn,43.51
2023-08-28T04:55:00,axn,44.19
2023-08-28T04:56:00,axn,44.45
2023-08-28T04:57:00,axn,44.24
2023-08-28T04:58:00,axn,34.33
2023-08-28T04:59:00,axn,33.91
2023-08-28T05:00:00,axn,34.15
2023-08-28T05:01:00,axn,28.80
2023-08-28T05:02:00,axn,28.70
2023-08-28T05:03:00,axn,29.01
2023-08-28T05:04:00,axn,29.02
2023-08-28T05:05:00,axn,29.03
2023-08-28T05:06:00,axn,29.02
2023-08-28T05:07:00,axn,29.32
2023-08-28T05:08:00,axn,28.92
2023-08-28T05:09:00,axn,29.00
2023-08-28T05:10:00,axn,29.00
2023-08-28T05:11:00,axn,29.52
2023-08-28T05:12:00,axn,29.59
2023-08-28T05:13:00,axn,29.61
2023-08-28T05:14:00,axn,29.42
2023-08-28T05:15:00,axn,29.45
2023-08-28T05:16:00,axn,28.42
2023-08-28T05:17:00,axn,30.14
2023-08-28T05:18:00,axn,28.39
2023-08-28T05:19:00,axn,28.69
2023-08-28T05:20:00,axn,28.58
2023-08-28T05:21:00,axn,28.62
2023-08-28T05:22:00,axn,28.43
2023-08-28T05:23:00,axn,28.77
2023-08-28T05:24:00,axn,34.50
2023-08-28T05:25:00,axn,34.75
2023-08-28T05:26:00,axn,34.59
2023-08-28T05:27:00,axn,28.71
2023-08-28T05:28:00,axn,28.68
2023-08-28T05:29:00,axn,28.82
2023-08-28T05:30:00,axn,28.60
2023-08-28T05:31:00,axn,30.84
2023-08-28T05:32:00,axn,31.13
2023-08-28T05:33:00,axn,30.89
2023-08-28T05:34:00,axn,30.71
2023-08-28T05:35:00,axn,30.66
2023-08-28T05:36:00,axn,31.13
2023-08-28T05:37:00,axn,30.78
2023-08-28T05:38:00,axn,30.92
2023-08-28T05:39:00,axn,45.67
2023-08-28T05:40:00,axn,30.62
2023-08-28T05:41:00,axn,30.56
2023-08-28T05:42:00,axn,30.49
2023-08-28T05:43:00,axn,30.43
2023-08-28T05:44:00,axn,30.57
2023-08-28T05:45:00,axn,30.49
2023-08-28T05:46:00,axn,30.57
2023-08-28T05:47:00,axn,30.55
2023-08-28T05:48:00,axn,30.61
2023-08-28T05:49:00,axn,30.49
2023-08-28T05:50:00,axn,30.54
2023-08-28T05:51:00,axn,30.54
2023-08-28T05:52:00,axn,30.50
2023-08-28T05:53:00,axn,30.39
2023-08-28T05:54:00,axn,30.34
2023-08-28T05:55:00,axn,30.57
2023-08-28T05:56:00,axn,29.61
2023-08-28T05:57:00,axn,29.23
2023-08-28T05:58:00,axn,29.10
2023-08-28T05:59:00,axn,29.20
2023-08-28T06:00:00,axn,29.16
2023-08-28T06:01:00,axn,29.31
2023-08-28T06:02:00,axn,29.58
2023-08-28T06:03:00,axn,29.62
2023-08-28T06:04:00,axn,29.93
2023-08-28T06:05:00,axn,29.88
2023-08-28T06:06:00,axn,29.80
2023-08-28T06:07:00,axn,29.91
2023-08-28T06:08:00,axn,29.80
2023-08-28T06:09:00,axn,29.65
2023-08-28T06:10:00,axn,29.62
2023-08-28T06:11:00,axn,43.08
2023-08-28T06:12:00,axn,42.63
2023-08-28T06:13:00,axn,28.55
2023-08-28T06:14:00,axn,28.81
2023-08-28T06:15:00,axn,42.25
2023-08-28T06:16:00,axn,41.92
2023-08-28T06:17:00,axn,41.87
2023-08-28T06:18:00,axn,28.18
2023-08-28T06:19:00,axn,28.44
2023-08-28T06:20:00,axn,28.48
2023-08-28T06:21:00,axn,28.09
2023-08-28T06:22:00,axn,28.06
2023-08-28T06:23:00,axn,27.85
2023-08-28T06:24:00,axn,27.91
2023-08-28T06:25:00,axn,27.96
2023-08-28T06:26:00,axn,28.15
2023-08-28T06:27:00,axn,27.60
2023-08-28T06:28:00,axn,28.99
2023-08-28T06:29:00,axn,28.81
2023-08-28T06:30:00,axn,28.80
2023-08-28T06:31:00,axn,28.76
2023-08-28T06:32:00,axn,28.66
2023-08-28T06:33:00,axn,28.57
2023-08-28T06:34:00,axn,28.29
2023-08-28T06:35:00,axn,28.22
2023-08-28T06:36:00,axn,28.41
2023-08-28T06:37:00,axn,28.35
2023-08-28T06:38:00,axn,28.34
2023-08-28T06:39:00,axn,28.22
2023-08-28T06:40:00,axn,28.26
2023-08-28T06:41:00,axn,28.32
2023-08-28T06:42:00,axn,28.22
2023-08-28T06:43:00,axn,27.96
2023-08-28T06:44:00,axn,27.88
2023-08-28T06:45:00,axn,28.07
2023-08-28T06:46:00,axn,27.83
2023-08-28T06:47:00,axn,27.83
2023-08-28T06:48:00,axn,27.79
2023-08-28T06:49:00,axn,27.77
2023-08-28T06:50:00,axn,28.64
2023-08-28T06:51:00,axn,28.42
2023-08-28T06:52:00,axn,28.37
2023-08-28T06:53:00,axn,28.54
2023-08-28T06:54:00,axn,28.49
2023-08-28T06:55:00,axn,28.29
2023-08-28T06:56:00,axn,28.44
2023-08-28T06:57:00,axn,28.21
2023-08-28T06:58:00,axn,28.14
2023-08-28T06:59:00,axn,28.34
2023-08-28T07:00:00,axn,28.51
2023-08-28T07:01:00,axn,32.19
2023-08-28T07:02:00,axn,33.58
2023-08-28T07:03:00,axn,34.36
2023-08-28T07:04:00,axn,34.63
2023-08-28T07:05:00,axn,34.79
2023-08-28T07:06:00,axn,34.82
2023-08-28T07:07:00,axn,34.18
2023-08-28T07:08:00,axn,33.76
2023-08-28T07:09:00,axn,33.79
2023-08-28T07:10:00,axn,33.77
2023-08-28T07:11:00,axn,33.96
2023-08-28T07:12:00,axn,33.86
2023-08-28T07:13:00,axn,33.50
2023-08-28T07:14:00,axn,33.41
2023-08-28T07:15:00,axn,33.47
2023-08-28T07:16:00,axn,33.54
2023-08-28T07:17:00,axn,33.24
2023-08-28T07:18:00,axn,33.26
2023-08-28T07:19:00,axn,33.44
2023-08-28T07:20:00,axn,33.15
2023-08-28T07:21:00,axn,33.46
2023-08-28T07:22:00,axn,33.29
2023-08-28T07:23:00,axn,57.40
2023-08-28T07:24:00,axn,33.36
2023-08-28T07:25:00,axn,33.45
2023-08-28T07:26:00,axn,33.27
2023-08-28T07:27:00,axn,36.25
2023-08-28T07:28:00,axn,36.23
2023-08-28T07:29:00,axn,33.40
2023-08-28T07:30:00,axn,33.67
2023-08-28T07:31:00,axn,33.30
2023-08-28T07:32:00,axn,33.46
2023-08-28T07:33:00,axn,36.11
2023-08-28T07:34:00,axn,36.16
2023-08-28T07:35:00,axn,38.06
2023-08-28T07:36:00,axn,36.60
2023-08-28T07:37:00,axn,36.78
2023-08-28T07:38:00,axn,36.89
2023-08-28T07:39:00,axn,37.09
2023-08-28T07:40:00,axn,37.15
2023-08-28T07:41:00,axn,37.27
2023-08-28T07:42:00,axn,37.57
2023-08-28T07:43:00,axn,53.63
2023-08-28T07:44:00,axn,37.34
2023-08-28T07:45:00,axn,37.46
2023-08-28T07:46:00,axn,37.40
2023-08-28T07:47:00,axn,37.22
2023-08-28T07:48:00,axn,37.08
2023-08-28T07:49:00,axn,37.02
2023-08-28T07:50:00,axn,37.03
2023-08-28T07:51:00,axn,37.24
2023-08-28T07:52:00,axn,37.16
2023-08-28T07:53:00,axn,37.42
2023-08-28T07:54:00,axn,37.44
2023-08-28T07:55:00,axn,37.32
2023-08-28T07:56:00,axn,37.19
2023-08-28T07:57:00,axn,37.32
2023-08-28T07:58:00,axn,37.45
2023-08-28T07:59:00,axn,37.19
2023-08-28T08:00:00,axn,37.29
2023-08-28T08:01:00,axn,37.56
2023-08-28T08:02:00,axn,37.49
2023-08-28T08:03:00,axn,37.10
2023-08-28T08:04:00,axn,37.06
2023-08-28T08:05:00,axn,37.17
2023-08-28T08:06:00,axn,37.48
2023-08-28T08:07:00,axn,37.70
2023-08-28T08:08:00,axn,37.11
2023-08-28T08:09:00,axn,37.66
2023-08-28T08:10:00,axn,37.81
2023-08-28T08:11:00,axn,37.94
2023-08-28T08:12:00,axn,37.49
2023-08-28T08:13:00,axn,37.24
2023-08-28T08:14:00,axn,37.31
2023-08-28T08:15:00,axn,37.57
2023-08-28T08:16:00,axn,38.31
2023-08-28T08:17:00,axn,38.15
2023-08-28T08:18:00,axn,38.59
2023-08-28T08:19:00,axn,38.57
2023-08-28T08:20:00,axn,37.75
2023-08-28T08:21:00,axn,37.84
2023-08-28T08:22:00,axn,38.05
2023-08-28T08:23:00,axn,37.71
2023-08-28T08:24:00,axn,37.56
2023-08-28T08:25:00,axn,37.47
2023-08-28T08:26:00,axn,37.89
2023-08-28T08:27:00,axn,37.97
2023-08-28T08:28:00,axn,38.32
2023-08-28T08:29:00,axn,38.58
2023-08-28T08:30:00,axn,39.36
2023-08-28T08:31:00,axn,39.51
2023-08-28T08:32:00,axn,39.02
2023-08-28T08:33:00,axn,39.23
2023-08-28T08:34:00,axn,39.85
2023-08-28T08:35:00,axn,39.45
2023-08-28T08:36:00,axn,39.36
2023-08-28T08:37:00,axn,40.38
2023-08-28T08:38:00,axn,40.13
2023-08-28T08:39:00,axn,40.79
2023-08-28T08:40:00,axn,41.29
2023-08-28T08:41:00,axn,41.14
2023-08-28T08:42:00,axn,57.19
2023-08-28T08:43:00,axn,41.00
2023-08-28T08:44:00,axn,41.22
2023-08-28T08:45:00,axn,41.06
2023-08-28T08:46:00,axn,41.66
2023-08-28T08:47:00,axn,41.48
2023-08-28T08:48:00,axn,41.46
2023-08-28T08:49:00,axn,41.18
2023-08-28T08:50:00,axn,41.12
2023-08-28T08:51:00,axn,41.48
2023-08-28T08:52:00,axn,41.40
2023-08-28T08:53:00,axn,41.45
2023-08-28T08:54:00,axn,41.33
2023-08-28T08:55:00,axn,41.14
2023-08-28T08:56:00,axn,45.94
2023-08-28T08:57:00,axn,41.04
2023-08-28T08:58:00,axn,41.91
2023-08-28T08:59:00,axn,41.69
2023-08-28T09:00:00,axn,41.17
2023-08-28T09:01:00,axn,40.79
2023-08-28T09:02:00,axn,41.14
2023-08-28T09:03:00,axn,40.75
2023-08-28T09:04:00,axn,40.82
2023-08-28T09:05:00,axn,40.47
2023-08-28T09:06:00,axn,40.63
2023-08-28T09:07:00,axn,40.86
2023-08-28T09:08:00,axn,40.48
2023-08-28T09:09:00,axn,41.08
2023-08-28T09:10:00,axn,40.93
2023-08-28T09:11:00,axn,40.89
2023-08-28T09:12:00,axn,41.65
2023-08-28T09:13:00,axn,40.69
2023-08-28T09:14:00,axn,40.34
2023-08-28T09:15:00,axn,40.37
2023-08-28T09:16:00,axn,40.28
2023-08-28T09:17:00,axn,40.28
2023-08-28T09:18:00,axn,40.90
2023-08-28T09:19:00,axn,40.44
2023-08-28T09:20:00,axn,41.01
2023-08-28T09:21:00,axn,40.66
2023-08-28T09:22:00,axn,40.95
2023-08-28T09:23:00,axn,40.79
2023-08-28T09:24:00,axn,40.45
2023-08-28T09:25:00,axn,40.24
2023-08-28T09:26:00,axn,40.14
2023-08-28T09:27:00,axn,40.12
2023-08-28T09:28:00,axn,40.16
2023-08-28T09:29:00,axn,40.21
2023-08-28T09:30:00,axn,40.69
2023-08-28T09:31:00,axn,40.60
2023-08-28T09:32:00,axn,40.62
2023-08-28T09:33:00,axn,41.15
2023-08-28T09:34:00,axn,41.09
2023-08-28T09:35:00,axn,41.12
2023-08-28T09:36:00,axn,41.00
2023-08-28T09:37:00,axn,40.77
2023-08-28T09:38:00,axn,40.34
2023-08-28T09:39:00,axn,40.39
2023-08-28T09:40:00,axn,40.61
2023-08-28T09:41:00,axn,40.72
2023-08-28T09:42:00,axn,41.08
2023-08-28T09:43:00,axn,40.68
2023-08-28T09:44:00,axn,40.68
2023-08-28T09:45:00,axn,40.95
2023-08-28T09:46:00,axn,41.46
2023-08-28T09:47:00,axn,41.01
2023-08-28T09:48:00,axn,41.10
2023-08-28T09:49:00,axn,41.20
2023-08-28T09:50:00,axn,41.01
2023-08-28T09:51:00,axn,41.36
2023-08-28T09:52:00,axn,41.76
2023-08-28T09:53:00,axn,41.95
2023-08-28T09:54:00,axn,42.12
2023-08-28T09:55:00,axn,41.49
2023-08-28T09:56:00,axn,41.83
2023-08-28T09:57:00,axn,42.00
2023-08-28T09:58:00,axn,42.32
2023-08-28T09:59:00,axn,41.33
2023-08-28T10:00:00,axn,41.88
2023-08-28T10:01:00,axn,41.07
2023-08-28T10:02:00,axn,41.61
2023-08-28T10:03:00,axn,40.83
2023-08-28T10:04:00,axn,40.99
2023-08-28T10:05:00,axn,41.75
2023-08-28T10:06:00,axn,42.29
2023-08-28T10:07:00,axn,41.41
2023-08-28T10:08:00,axn,41.32
2023-08-28T10:09:00,axn,41.21
2023-08-28T10:10:00,axn,41.47
2023-08-28T10:11:00,axn,41.18
2023-08-28T10:12:00,axn,43.78
2023-08-28T10:13:00,axn,43.43
2023-08-28T10:14:00,axn,43.13
2023-08-28T10:15:00,axn,43.27
2023-08-28T10:16:00,axn,43.16
2023-08-28T10:17:00,axn,42.77
2023-08-28T10:18:00,axn,43.06
2023-08-28T10:19:00,axn,42.77
2023-08-28T10:20:00,axn,43.51
2023-08-28T10:21:00,axn,43.54
2023-08-28T10:22:00,axn,43.37
2023-08-28T10:23:00,axn,43.45
2023-08-28T10:24:00,axn,45.78
2023-08-28T10:25:00,axn,45.44
2023-08-28T10:26:00,axn,45.36
2023-08-28T10:27:00,axn,42.44
2023-08-28T10:28:00,axn,45.22
2023-08-28T10:29:00,axn,45.75
2023-08-28T10:30:00,axn,42.88
2023-08-28T10:31:00,axn,42.72
2023-08-28T10:32:00,axn,42.38
2023-08-28T10:33:00,axn,42.33
2023-08-28T10:34:00,axn,42.25
2023-08-28T10:35:00,axn,42.49
2023-08-28T10:36:00,axn,42.12
2023-08-28T10:37:00,axn,42.26
2023-08-28T10:38:00,axn,41.95
2023-08-28T10:39:00,axn,42.20
2023-08-28T10:40:00,axn,41.97
2023-08-28T10:41:00,axn,42.13
2023-08-28T10:42:00,axn,42.71
2023-08-28T10:43:00,axn,42.11
2023-08-28T10:44:00,axn,42.36
2023-08-28T10:45:00,axn,42.40
2023-08-28T10:46:00,axn,42.44
2023-08-28T10:47:00,axn,42.22
2023-08-28T10:48:00,axn,42.10
2023-08-28T10:49:00,axn,41.92
2023-08-28T10:50:00,axn,41.72
2023-08-28T10:51:00,axn,41.65
2023-08-28T10:52:00,axn,41.50
2023-08-28T10:53:00,axn,41.43
2023-08-28T10:54:00,axn,42.12
2023-08-28T10:55:00,axn,42.09
2023-08-28T10:56:00,axn,42.02
2023-08-28T10:57:00,axn,42.00
2023-08-28T10:58:00,axn,42.29
2023-08-28T10:59:00,axn,42.12
2023-08-28T11:00:00,axn,42.03
2023-08-28T11:01:00,axn,41.87
2023-08-28T11:02:00,axn,41.71
2023-08-28T11:03:00,axn,41.56
2023-08-28T11:04:00,axn,41.78
2023-08-28T11:05:00,axn,41.87
2023-08-28T11:06:00,axn,46.60
2023-08-28T11:07:00,axn,47.61
2023-08-28T11:08:00,axn,47.47
2023-08-28T11:09:00,axn,43.15
2023-08-28T11:10:00,axn,43.71
2023-08-28T11:11:00,axn,43.22
2023-08-28T11:12:00,axn,43.11
2023-08-28T11:13:00,axn,42.97
2023-08-28T11:14:00,axn,43.14
2023-08-28T11:15:00,axn,57.37
2023-08-28T11:16:00,axn,57.20
2023-08-28T11:17:00,axn,57.58
2023-08-28T11:18:00,axn,57.44
2023-08-28T11:19:00,axn,57.21
2023-08-28T11:20:00,axn,58.19
2023-08-28T11:21:00,axn,43.48
2023-08-28T11:22:00,axn,43.79
2023-08-28T11:23:00,axn,43.98
2023-08-28T11:24:00,axn,43.40
2023-08-28T11:25:00,axn,53.94
2023-08-28T11:26:00,axn,53.91
2023-08-28T11:27:00,axn,53.44
2023-08-28T11:28:00,axn,53.42
2023-08-28T11:29:00,axn,53.25
2023-08-28T11:30:00,axn,43.50
2023-08-28T11:31:00,axn,43.18
2023-08-28T11:32:00,axn,43.44
2023-08-28T11:33:00,axn,43.06
2023-08-28T11:34:00,axn,43.19
2023-08-28T11:35:00,axn,43.66
2023-08-28T11:36:00,axn,43.23
2023-08-28T11:37:00,axn,43.09
2023-08-28T11:38:00,axn,42.66
2023-08-28T11:39:00,axn,42.88
2023-08-28T11:40:00,axn,43.11
2023-08-28T11:41:00,axn,43.17
2023-08-28T11:42:00,axn,43.51
2023-08-28T11:43:00,axn,43.22
2023-08-28T11:44:00,axn,42.86
2023-08-28T11:45:00,axn,43.42
2023-08-28T11:46:00,axn,43.29
2023-08-28T11:47:00,axn,43.21
2023-08-28T11:48:00,axn,44.08
2023-08-28T11:49:00,axn,43.34
2023-08-28T11:50:00,axn,42.60
2023-08-28T11:51:00,axn,43.17
2023-08-28T11:52:00,axn,42.82
2023-08-28T11:53:00,axn,42.84
2023-08-28T11:54:00,axn,43.07
2023-08-28T11:55:00,axn,43.01
2023-08-28T11:56:00,axn,42.72
2023-08-28T11:57:00,axn,42.58
2023-08-28T11:58:00,axn,43.24
2023-08-28T11:59:00,axn,42.70
2023-08-28T12:00:00,axn,43.17
2023-08-28T12:01:00,axn,45.13
2023-08-28T12:02:00,axn,43.61
2023-08-28T12:03:00,axn,43.51
2023-08-28T12:04:00,axn,43.90
2023-08-28T12:05:00,axn,43.76
2023-08-28T12:06:00,axn,44.02
2023-08-28T12:07:00,axn,43.83
2023-08-28T12:08:00,axn,42.95
2023-08-28T12:09:00,axn,43.22
2023-08-28T12:10:00,axn,43.48
2023-08-28T12:11:00,axn,43.02
2023-08-28T12:12:00,axn,42.96
2023-08-28T12:13:00,axn,42.39
2023-08-28T12:14:00,axn,42.55
2023-08-28T12:15:00,axn,42.30
2023-08-28T12:16:00,axn,42.20
2023-08-28T12:17:00,axn,42.29
2023-08-28T12:18:00,axn,42.64
2023-08-28T12:19:00,axn,41.91
2023-08-28T12:20:00,axn,44.68
2023-08-28T12:21:00,axn,45.26
2023-08-28T12:22:00,axn,42.08
2023-08-28T12:23:00,axn,42.04
2023-08-28T12:24:00,axn,42.03
2023-08-28T12:25:00,axn,41.78
2023-08-28T12:26:00,axn,56.44
2023-08-28T12:27:00,axn,41.84
2023-08-28T12:28:00,axn,42.22
2023-08-28T12:29:00,axn,41.79
2023-08-28T12:30:00,axn,42.17
2023-08-28T12:31:00,axn,47.54
2023-08-28T12:32:00,axn,47.35
2023-08-28T12:33:00,axn,47.50
2023-08-28T12:34:00,axn,41.86
2023-08-28T12:35:00,axn,41.93
2023-08-28T12:36:00,axn,41.72
2023-08-28T12:37:00,axn,41.88
2023-08-28T12:38:00,axn,41.72
2023-08-28T12:39:00,axn,41.31
2023-08-28T12:40:00,axn,57.79
2023-08-28T12:41:00,axn,41.45
2023-08-28T12:42:00,axn,41.77
2023-08-28T12:43:00,axn,41.96
2023-08-28T12:44:00,axn,41.90
2023-08-28T12:45:00,axn,42.49
2023-08-28T12:46:00,axn,41.84
2023-08-28T12:47:00,axn,41.91
2023-08-28T12:48:00,axn,41.37
2023-08-28T12:49:00,axn,41.38
2023-08-28T12:50:00,axn,41.27
2023-08-28T12:51:00,axn,41.59
2023-08-28T12:52:00,axn,41.13
2023-08-28T12:53:00,axn,41.54
2023-08-28T12:54:00,axn,41.25
2023-08-28T12:55:00,axn,42.00
2023-08-28T12:56:00,axn,41.78
2023-08-28T12:57:00,axn,42.04
2023-08-28T12:58:00,axn,42.23
2023-08-28T12:59:00,axn,57.51
2023-08-28T13:00:00,axn,41.55
2023-08-28T13:01:00,axn,41.19
2023-08-28T13:02:00,axn,41.12
2023-08-28T13:03:00,axn,41.67
2023-08-28T13:04:00,axn,42.12
2023-08-28T13:05:00,axn,42.19
2023-08-28T13:06:00,axn,41.86
2023-08-28T13:07:00,axn,41.48
2023-08-28T13:08:00,axn,41.50
2023-08-28T13:09:00,axn,41.49
2023-08-28T13:10:00,axn,41.86
2023-08-28T13:11:00,axn,41.75
2023-08-28T13:12:00,axn,41.61
2023-08-28T13:13:00,axn,42.02
2023-08-28T13:14:00,axn,41.49
2023-08-28T13:15:00,axn,41.46
2023-08-28T13:16:00,axn,42.07
2023-08-28T13:17:00,axn,41.69
2023-08-28T13:18:00,axn,41.80